Regional Weather Roundup
Issued by NWS

Home | Current Version | Previous Version | Text Only | Print | Product List | Glossary Off
Versions: 1 2 3 4 5 6 7 8 9 10 11 12 13 14 15 16 17 18 19 20 21 22 23 24 25 26 27 28 29 30 31 32 33 34 35 36 37 38 39 40 41 42 43 44 45 46 47 48 49 50

000
ASUS43 KOAX 031402
RWRNE

WEATHER ROUNDUP FOR NEBRASKA
NATIONAL WEATHER SERVICE OMAHA NE
800 AM CST TUE MAR 03 2015

NOTES: SATELLITE DATA IS BEING USED TO AUGMENT CLOUD COVER ABOVE
       12000 FEET.
       "FAIR" INDICATES FEW OR NO CLOUDS BELOW 12,000 FEET WITH NO
       SIGNIFICANT WEATHER AND/OR OBSTRUCTIONS TO VISIBILITY.

  * THESE STATIONS DO NOT REPORT WEATHER SUCH AS RAIN...SNOW OR FOG.

NEZ001>004-019>022-054>056-031500-
NEBRASKA PANHANDLE

CITY           SKY/WX    TMP DP  RH WIND       PRES   REMARKS
SCOTTSBLUFF    CLOUDY    19  12  74 N17       29.90R WCI   4
ALLIANCE       LGT SNOW  16  11  80 N23G32    29.87R WCI  -2
CHADRON        CLOUDY    16  11  80 N23       29.94R HAZE    WCI  -2
KIMBALL        FLURRIES  22  19  90 N15       29.80R WCI   8
SIDNEY         CLOUDY    20  16  84 N23G31    29.83R WCI   3
$$

NEZ057>060-069>072-079>082-031500-
SOUTHWEST NEBRASKA

CITY           SKY/WX    TMP DP  RH WIND       PRES   REMARKS
NORTH PLATTE   CLOUDY    27  18  69 N25G40    29.79R WCI  12
IMPERIAL         N/A     31  24  75 N33G43    29.78R WCI  15
LEXINGTON      CLOUDY    31  27  83 NW12      29.74R WCI  22
MCCOOK         CLOUDY    31  26  82 W8        29.75R HAZE    WCI  23
$$

NEZ005>010-023>029-035>040-094-031500-
NORTH CENTRAL NEBRASKA

CITY           SKY/WX    TMP DP  RH WIND       PRES   REMARKS
VALENTINE      LGT SNOW  17  11  77 N26G38    29.89R WCI  -2
AINSWORTH      LGT SNOW  18  13  81 N31G41    29.83R WCI  -2
BROKEN BOW     CLOUDY    29  23  78 N36G49    29.73R WCI  12
ORD            CLOUDY    30  22  72 NW13      29.72R WCI  20
$$

NEZ041-046>049-061>064-073>077-083>087-031500-
SOUTH CENTRAL NEBRASKA

CITY           SKY/WX    TMP DP  RH WIND       PRES   REMARKS
GRAND ISLAND   CLOUDY    29  23  78 W10       29.73R WCI  20
HASTINGS       CLOUDY    30  23  75 NW14      29.71R WCI  19
HEBRON         CLOUDY    34  29  82 NW9       29.69R WCI  27
KEARNEY *      CLOUDY    28  21  74 NW10      29.73R WCI  19
$$

NEZ011>018-030>034-042>045-031500-
NORTHEAST NEBRASKA

CITY           SKY/WX    TMP DP  RH WIND       PRES   REMARKS
NORFOLK        CLOUDY    29  25  85 NW6       29.69R WCI  23
BLAIR          FOG       32  31  96 W5        29.66S VSB 3/4 WCI  28
COLUMBUS *     CLOUDY    30  21  69 W9        29.72R WCI  22
FREMONT        CLOUDY    32  32  99 W5        29.69R FOG     WCI  27
TEKAMAH        CLOUDY    31  29  92 CALM      29.68F FOG
$$

NEZ050>053-065>068-078-088>093-031500-
SOUTHEAST NEBRASKA

CITY           SKY/WX    TMP DP  RH WIND       PRES   REMARKS
LINCOLN        CLOUDY    33  32  96 NW7       29.70R FOG     WCI  27
OMAHA EPPLEY   FRZ DRZL  32  31  96 NW3       29.68R VSB 1
FALLS CITY     CLOUDY    36  34  92 S5        29.67S FOG     WCI  32
$$

NEZ044-045-051>053-067-031500-
OMAHA AREA

CITY           SKY/WX    TMP DP  RH WIND       PRES   REMARKS
OMAHA EPPLEY   FRZ DRZL  32  31  96 NW3       29.68R VSB 1
BLAIR          FOG       32  31  96 W5        29.66S VSB 3/4 WCI  28
FREMONT        CLOUDY    32  32  99 W5        29.69R FOG     WCI  27
OFFUTT AFB     FRZ DRZL  32  32  97 W3        29.67R FOG
$$


USA.gov is the U.S. government's official web portal to all federal, state and local government web resources and services.